SCOUT X-4 DEB, 2986

Orbit data source: Space-Track

SCOUT X-4 DEB, 2986 is space debris in LEO originally from a launch on Thu, 04 Jun 1964 UTC launched from the Air Force Western Test Range (AFWTR). Debris objects in space refer to the collection of defunct objects orbiting the Earth. Examples of debris include non-operational satellites, rocket bodies, and fragments generated from explosions, collisions, or faulty payload assembly.

Loading next visibility...
Identifier
2986, 1964-026E
Orbit
LEO
Last TLE update
19 hours ago
Origin
Manufacturer
Unknown
Mission
Spacecraft
Bus & Motor
Unknown
Mass
Unknown
Launch date (UTC)
1964-06-04 (61 years ago)
Launch vehicle
Unknown
Launch site
Air Force Western Test Range (AFWTR)
Object type
Payload
Rocket body
Debris
Shape & HBR
Unknown
Radar Cross Section
Small (<0.1 m²)

Expand to show TLE details & history

TLE from 19 hours ago
0 SCOUT X-4 DEB
1 02986U 64026E   25129.05128756  .00000307  00000-0  17881-3 0  9994
2 02986  90.4731 171.0189 0048232  71.2342 289.4065 14.06323643117663
Epoch: 2025-05-09T01:13Z
Definitive object data (Epoch: 2025-05-09T01:13:51.245Z)
Latitude
0.00001°
Longitude
-74.5576°
Altitude
863.543 km
Speed
7.426 km/s
True Right ascension
11h 24m 04s
True Declination
0° 00' 00"
Sunlit
Object was in full shadow at TLE epoch
Visualization TLE readout
Latitude
61.27882°
Longitude
106.34355°
Altitude
860.035 km
Speed
7.44 km/s
Apparent Right ascension
19h 20m 48s
Apparent Declination
22° 23' 45"
Sunlit
Object is in daylight
Visualization observer readout
Local Sidereal Time
04:45:34
Azimuth
322.477° NNW
Elevation
-17.946°
Doppler factor
1
Orbital elements
Apogee altitude
903.902 km
Perigee altitude
833.994 km
Semi-major axis
7,247.085 km
Eccentricity
0.0048232
Inclination
90.4731°
RAAN
171.0189°
Arg. of periapsis
71.2342°
True anomaly
288.88416°
Mean anomaly
289.4065°
Eccentric anomaly
289.14544°
Mean motion
3.51802 °/min
BSTAR
0.00017881
Orbital period
102.33 mins
Loading maneuver chart data...
Loading SW <> Apogee altitude chart data...
Loading historical data...
Loading historical data...
Loading historical data...
Loading historical data...
Loading historical data...
Loading historical data...
Loading historical data...

SCOUT X-4 DEB Visibility forecast

Observer location: undefined°, undefined°

Span
Click to sort rows by Start time (UTC) header in descending order
Start Az.
Max El. time (UTC)
Max El. Az.
Max El.
End time (UTC)
End Az.
10 mins2025-05-10 02:57:24.820Z168.75° S2025-05-10 03:02:24.820Z44.696° NE43.593°2025-05-10 03:07:24.820Z0.581° NNE
4 mins2025-05-10 13:43:24.820Z63.419° ENE2025-05-10 13:44:24.820Z75.409° E14.573°2025-05-10 13:47:24.820Z109.72° ESE
9 mins2025-05-10 15:23:24.820Z353.784° N2025-05-10 15:27:24.820Z276.077° WNW42.408°2025-05-10 15:32:24.820Z196.313° SSW
|